[[{"header":{"parameterUnit":"m.s-1","parameterCategory":1,"la1":30.2991,"la2":30.254,"lo1":-89.0895,"lo2":-89.0444,"dy":0.0017,"dx":0.0017,"nx":28,"ny":28,"refTime":"2023-11-01T09:00:00:Z","depth":0,"parameterNumber":2,"parameterNumberName":"U-component_of_WINDS"},"data":[0,0,0,0,0,0,0,0,0,0,0,0,0,0,0,0,0,0,0,0,0,0,0,0,0,0,0,0,0,0,0,0,0,0,0,0,0,0,0,0,0,0,0,0,0,0,0,0,0,0,0,0,0,0,0,0,0,0,-3.7627,-3.7627,0,-3.7588,-3.7588,-3.7587,-3.7435,-3.7432,-3.7428,-3.7425,-3.7389,-3.7392,-3.7394,0,0,0,0,0,0,0,0,0,0,0,0,0,-3.7574,-3.7576,-3.7627,-3.7627,-3.7626,-3.7588,-3.7588,-3.7587,-3.7436,-3.7432,-3.7427,-3.7423,-3.7389,-3.7391,-3.7394,0,0,0,0,0,0,0,0,0,0,0,0,0,-3.7573,-3.7577,-3.7627,-3.7546,-3.7538,-3.7588,-3.7588,-3.7587,-3.7437,-3.7432,-3.7426,-3.7421,-3.7388,-3.7391,-3.7395,-3.7521,0,0,-3.7405,-3.7407,0,0,0,0,0,0,0,0,-3.7573,-3.7575,-3.7558,-3.7552,-3.7543,-3.7511,-3.7556,-3.7565,-3.7438,-3.7476,-3.7425,-3.7419,-3.7435,-3.7434,-3.7438,-3.7519,-3.7518,-3.7405,-3.7408,-3.7409,-3.741,0,0,0,0,0,0,0,-3.7574,-3.7576,-3.7612,-3.7558,-3.7549,-3.7513,-3.7507,-3.7557,-3.7485,-3.7472,-3.7461,-3.7458,-3.7429,-3.7435,-3.7436,-3.7517,-3.7405,-3.7408,-3.7411,-3.7412,-3.7703,-3.7708,0,0,0,0,0,0,-3.7585,-3.7577,-3.7613,-3.7611,-3.7545,-3.7518,-3.7511,-3.7527,-3.7484,-3.7472,-3.7463,-3.7451,-3.7432,-3.7432,-3.7434,-3.7581,-3.7409,-3.7412,-3.7414,-3.7697,-3.7704,-3.771,0,0,0,0,0,0,-3.7584,-3.7589,-3.7615,-3.7591,-3.7591,-3.7525,-3.7543,-3.7529,-3.7534,-3.7477,-3.7464,-3.7482,-3.7428,-3.7429,-3.7501,-3.7578,-3.7414,-3.7417,-3.769,-3.7699,-3.7707,-3.7876,0,0,0,0,0,0,-3.7583,-3.759,-3.7636,-3.7593,-3.7593,-3.7681,-3.7548,-3.7532,-3.754,-3.7525,-3.7491,-3.7481,-3.7424,-3.7497,-3.7504,-3.758,-3.742,-3.7683,-3.7694,-3.7704,-3.7863,-3.7889,-3.7911,0,0,0,0,0,-3.7582,-3.7686,-3.7639,-3.7645,-3.7649,-3.7686,-3.7686,-3.7617,-3.7547,-3.7594,-3.7557,-3.7482,-3.7568,-3.7505,-3.7513,-3.759,-3.7678,-3.7691,-3.7703,-3.7852,-3.7884,-3.791,0,0,0,0,0,0,-3.7741,-3.7679,-3.7627,-3.7719,-3.7709,-3.766,-3.7717,-3.7652,-3.7663,-3.7648,-3.7563,-3.7557,-3.7641,-3.7622,-3.7554,-3.7711,-3.761,-3.7625,-3.7721,-3.775,-3.7774,-3.7778,-3.7423,0,0,0,0,0,-3.7787,-3.782,-3.7764,-3.7852,-3.7849,-3.7785,-3.7798,-3.7745,-3.7732,-3.7727,-3.7695,-3.7686,-3.7711,-3.7729,-3.7749,-3.7859,-3.7851,-3.7916,-3.794,-3.796,-3.7975,-3.8034,-3.8063,-3.7752,-3.7752,-3.7751,0,0,-3.7882,-3.7852,-3.7879,-3.7883,-3.7869,-3.7907,-3.7782,-3.7827,-3.7855,-3.7734,-3.78,-3.7776,-3.776,-3.7853,-3.7891,-3.7839,-3.8058,-3.7976,-3.7993,-3.7996,-3.805,-3.8079,-3.8105,-3.776,-3.7759,-3.7757,0,0,-3.8076,-3.8056,-3.8127,-3.8115,-3.8095,-3.8051,-3.8069,-3.803,-3.8009,-3.8073,-3.7984,-3.8017,-3.8061,-3.8054,-3.8056,-3.8248,-3.818,-3.8257,-3.8383,-3.8442,-3.8466,-3.8488,-3.8558,-3.8584,-3.8271,-3.8272,-3.8272,0,-3.8197,-3.825,-3.8172,-3.8223,-3.8229,-3.812,-3.8193,-3.8185,-3.8174,-3.8181,-3.8122,-3.8176,-3.8158,-3.8248,-3.8295,-3.8299,-3.8318,-3.8261,-3.8469,-3.8489,-3.8508,-3.8575,-3.8601,-3.8281,-3.828,-3.8279,-3.8278,0,-3.8401,-3.8439,-3.8499,-3.849,-3.8502,-3.8564,-3.8497,-3.8519,-3.8466,-3.8429,-3.8497,-3.8471,-3.8485,-3.8502,-3.845,-3.8585,-3.8554,-3.8483,-3.838,-3.8549,-3.861,-3.8635,-3.8295,-3.8292,-3.8289,-3.8286,0,0,-3.8695,-3.8641,-3.8665,-3.866,-3.863,-3.8659,-3.8716,-3.8728,-3.875,-3.8745,-3.8793,-3.8833,-3.8768,-3.8771,-3.8718,-3.8769,-3.8926,-3.8693,-3.8691,-3.8739,-3.9075,-3.913,-3.9161,-3.888,-3.8884,-3.8888,-3.9077,0,-3.8881,-3.8975,-3.8907,-3.9014,-3.905,-3.8947,-3.8998,-3.8986,-3.8953,-3.898,-3.8944,-3.8975,-3.8885,-3.8887,-3.8932,-3.8897,-3.8993,-3.8882,-3.8926,-3.8928,-3.8935,-3.9192,-3.925,-3.943,-3.9101,-3.9104,-3.9107,0,-3.911,-3.9115,-3.9226,-3.919,-3.9202,-3.9249,-3.9255,-3.9281,-3.9266,-3.9239,-3.9243,-3.9177,-3.9233,-3.9131,-3.9208,-3.9134,-3.9148,-3.9134,-3.9139,-3.9142,-3.903,-3.9205,-3.9485,-3.9514,-3.9144,-3.9141,-3.9138,0,-3.9316,-3.935,-3.9421,-3.942,-3.9379,-3.9415,-3.94,-3.9379,-3.9391,-3.9397,-3.9404,-3.9417,-3.9425,-3.9438,-3.9378,-3.9309,-3.9464,-3.9356,-3.9445,-3.9447,-3.9484,-3.9483,-3.9774,-3.949,-3.949,-3.9489,-3.9489,0,-3.9532,-3.9604,-3.9513,-3.9557,-3.9636,-3.9558,-3.9638,-3.9612,-3.9595,-3.9634,-3.9546,-3.9584,-3.9502,-3.9532,-3.9486,-3.9559,-3.9562,-3.9543,-3.9531,-3.9553,-3.9556,-3.9562,-3.9549,-3.9496,-3.9495,-3.9493,-3.9492,0,-3.9776,-3.9717,-3.9788,-3.9744,-3.9734,-3.9795,-3.9757,-3.9797,-3.9758,-3.9808,-3.9815,-3.9756,-3.9787,-3.9728,-3.9752,-3.9721,-3.9824,-3.979,-3.9829,-3.982,-3.9913,-3.9906,-4.022,-4.0258,-3.9948,-3.9951,-3.9954,0,-3.9918,-3.9971,-3.9932,-3.9951,-3.9941,-3.9972,-3.9984,-3.991,-3.9926,-3.9914,-3.9956,-3.998,-3.9995,-4.005,-4.001,-4.0029,-3.9996,-4.0105,-3.9999,-4.002,-4.0001,-4.0,-4.0006,-4.0128,-4.0132,-4.0135,-4.0137,0,-4.0178,-4.0147,-4.0166,-4.0177,-4.0193,-4.0198,-4.0197,-4.0218,-4.0139,-4.0162,-4.0193,-4.0205,-4.0229,-4.0255,-4.0264,-4.0249,-4.0182,-4.0171,-4.0193,-4.0217,-4.0238,-4.023,-3.9891,-4.0164,-4.0162,-4.016,-4.0158,-4.0157,-4.0377,-4.042,-4.04,-4.0425,-4.0416,-4.0417,-4.0453,-4.0419,-4.0442,-4.0456,-4.041,-4.0452,-4.0438,-4.0442,-4.0436,-4.0469,-4.042,-4.0452,-4.046,-4.047,-4.0486,-4.0231,-4.047,-4.0469,-4.0468,-4.0467,-4.0467,0,-4.0634,-4.0616,-4.064,-4.0641,-4.0662,-4.0594,-4.0589,-4.0611,-4.0649,-4.064,-4.0657,-4.0693,-4.0718,-4.068,-4.0699,-4.0733,-4.0702,-4.074,-4.0738,-4.0737,-4.0526,-4.0507,-4.0765,-4.0765,-4.0765,-4.0765,-4.0765,-4.0765,-4.077,-4.084,-4.0807,-4.0873,-4.0854,-4.0893,-4.0897,-4.0899,-4.0891,-4.0936,-4.0955,-4.093,-4.091,-4.0927,-4.0947,-4.0935,-4.0948,-4.0998,-4.0976,-4.078,-4.0751,-4.0724,-4.0705,-4.1,-4.1001,-4.1183,-4.1185,-4.1186]},{"header":{"parameterUnit":"m.s-1","parameterCategory":1,"la1":30.2991,"la2":30.254,"lo1":-89.0895,"lo2":-89.0444,"dy":0.0017,"dx":0.0017,"nx":28,"ny":28,"refTime":"2023-11-01T09:00:00:Z","depth":0,"parameterNumber":3,"parameterNumberName":"V-component_of_WINDS"},"data":[0,0,0,0,0,0,0,0,0,0,0,0,0,0,0,0,0,0,0,0,0,0,0,0,0,0,0,0,0,0,0,0,0,0,0,0,0,0,0,0,0,0,0,0,0,0,0,0,0,0,0,0,0,0,0,0,0,0,-0.9181,-0.9182,0,-0.9256,-0.9257,-0.9258,-0.9266,-0.9265,-0.9264,-0.9263,-0.9342,-0.9345,-0.9348,0,0,0,0,0,0,0,0,0,0,0,0,0,-0.9045,-0.9048,-0.9181,-0.9182,-0.9183,-0.9256,-0.9257,-0.9258,-0.9266,-0.9265,-0.9264,-0.9263,-0.9341,-0.9345,-0.9348,0,0,0,0,0,0,0,0,0,0,0,0,0,-0.9111,-0.9049,-0.9181,-0.9196,-0.9198,-0.9256,-0.9257,-0.9259,-0.9266,-0.9265,-0.9264,-0.9263,-0.934,-0.9344,-0.9348,-0.9398,0,0,-0.9361,-0.9363,0,0,0,0,0,0,0,0,-0.9107,-0.9116,-0.9193,-0.9195,-0.9197,-0.925,-0.9238,-0.9305,-0.9266,-0.924,-0.9263,-0.9262,-0.9313,-0.9319,-0.9336,-0.9402,-0.9405,-0.9362,-0.9364,-0.9366,-0.9367,0,0,0,0,0,0,0,-0.9103,-0.9113,-0.9211,-0.9194,-0.9197,-0.9199,-0.9207,-0.9251,-0.9282,-0.9242,-0.9243,-0.9252,-0.9314,-0.9332,-0.9338,-0.9406,-0.9362,-0.9365,-0.9368,-0.937,-0.9516,-0.9517,0,0,0,0,0,0,-0.9095,-0.9109,-0.9209,-0.9213,-0.9148,-0.9202,-0.9211,-0.9235,-0.9282,-0.9288,-0.9253,-0.9252,-0.9325,-0.9333,-0.9341,-0.9402,-0.9366,-0.937,-0.9372,-0.9515,-0.9516,-0.9518,0,0,0,0,0,0,-0.9092,-0.9104,-0.9206,-0.9161,-0.9174,-0.9206,-0.9232,-0.9237,-0.9255,-0.9289,-0.9295,-0.9265,-0.9324,-0.9335,-0.9383,-0.9405,-0.9372,-0.9376,-0.9513,-0.9515,-0.9517,-0.9525,0,0,0,0,0,0,-0.9088,-0.9103,-0.9122,-0.9162,-0.9177,-0.9247,-0.9233,-0.9239,-0.9262,-0.9261,-0.9303,-0.9309,-0.9324,-0.9377,-0.9388,-0.941,-0.9379,-0.9511,-0.9514,-0.9516,-0.9523,-0.9527,-0.953,0,0,0,0,0,-0.9083,-0.9122,-0.9123,-0.9135,-0.9201,-0.9248,-0.9257,-0.9274,-0.9263,-0.9283,-0.9305,-0.9307,-0.94,-0.9382,-0.9394,-0.9418,-0.951,-0.9513,-0.9516,-0.9521,-0.9526,-0.953,0,0,0,0,0,0,-0.9085,-0.9127,-0.9129,-0.9181,-0.9211,-0.925,-0.9275,-0.9279,-0.9312,-0.9311,-0.9331,-0.934,-0.9388,-0.9408,-0.9387,-0.9468,-0.9454,-0.946,-0.9454,-0.9459,-0.9462,-0.9457,-0.9383,0,0,0,0,0,-0.9091,-0.9125,-0.9161,-0.9203,-0.9218,-0.9244,-0.9265,-0.9275,-0.9307,-0.932,-0.9346,-0.9377,-0.9413,-0.9437,-0.9472,-0.9525,-0.9534,-0.9547,-0.9551,-0.9554,-0.9559,-0.9588,-0.9595,-0.9528,-0.9528,-0.9528,0,0,-0.9105,-0.9132,-0.9153,-0.9204,-0.9229,-0.9264,-0.9254,-0.9293,-0.9319,-0.9326,-0.9374,-0.9393,-0.9429,-0.948,-0.9504,-0.9498,-0.9579,-0.9558,-0.956,-0.9563,-0.9592,-0.9598,-0.9604,-0.953,-0.9529,-0.9529,0,0,-0.9148,-0.9172,-0.921,-0.9234,-0.927,-0.9287,-0.9296,-0.9333,-0.9347,-0.9394,-0.94,-0.9432,-0.9494,-0.9519,-0.9541,-0.9591,-0.9595,-0.9602,-0.9622,-0.9651,-0.9656,-0.9661,-0.968,-0.9686,-0.9607,-0.9607,-0.9607,0,-0.9161,-0.9214,-0.9229,-0.9267,-0.9289,-0.9296,-0.9335,-0.9357,-0.9404,-0.9419,-0.9411,-0.9489,-0.9513,-0.9571,-0.9583,-0.9599,-0.9611,-0.9598,-0.9654,-0.9659,-0.9664,-0.9682,-0.9689,-0.9607,-0.9607,-0.9607,-0.9607,0,-0.9228,-0.9265,-0.9291,-0.9335,-0.936,-0.9398,-0.9419,-0.9443,-0.945,-0.9468,-0.9516,-0.9546,-0.9587,-0.9601,-0.9609,-0.9659,-0.9654,-0.965,-0.9637,-0.9671,-0.9688,-0.9695,-0.9609,-0.9608,-0.9608,-0.9608,0,0,-0.9276,-0.9326,-0.9336,-0.9356,-0.9395,-0.9424,-0.9462,-0.9502,-0.9522,-0.9553,-0.9586,-0.9637,-0.9633,-0.9657,-0.9668,-0.9692,-0.9731,-0.9685,-0.9686,-0.9694,-0.9789,-0.9793,-0.9801,-0.9733,-0.9734,-0.9735,-0.9786,0,-0.9325,-0.9393,-0.9407,-0.9466,-0.95,-0.9505,-0.9538,-0.9566,-0.9583,-0.9615,-0.9633,-0.967,-0.9661,-0.9675,-0.97,-0.9721,-0.9751,-0.9718,-0.9765,-0.9766,-0.9757,-0.981,-0.9814,-0.9861,-0.9793,-0.9794,-0.9795,0,-0.9391,-0.9423,-0.9485,-0.9519,-0.9534,-0.9564,-0.9601,-0.9631,-0.9662,-0.9673,-0.9698,-0.9706,-0.9746,-0.9729,-0.9784,-0.9761,-0.9781,-0.9794,-0.9796,-0.9803,-0.9784,-0.9819,-0.9877,-0.9884,-0.9806,-0.9805,-0.9804,0,-0.9422,-0.948,-0.9524,-0.9541,-0.9582,-0.9602,-0.9621,-0.9651,-0.9673,-0.9705,-0.972,-0.9757,-0.9777,-0.9805,-0.9822,-0.9808,-0.9877,-0.9861,-0.9887,-0.9887,-0.9903,-0.9902,-0.9966,-0.9913,-0.9913,-0.9913,-0.9913,0,-0.9475,-0.9513,-0.9538,-0.9566,-0.9609,-0.9624,-0.9666,-0.9683,-0.971,-0.9741,-0.9748,-0.9777,-0.9797,-0.9829,-0.9843,-0.9887,-0.9896,-0.9906,-0.9909,-0.9906,-0.9905,-0.9921,-0.9918,-0.9915,-0.9914,-0.9914,-0.9914,0,-0.9517,-0.9535,-0.9585,-0.9619,-0.9628,-0.9658,-0.9687,-0.9714,-0.973,-0.977,-0.978,-0.9805,-0.9843,-0.9862,-0.991,-0.9919,-0.9969,-0.997,-0.9958,-0.996,-0.9985,-0.9983,-1.0063,-1.0074,-1.0012,-1.0013,-1.0013,0,-0.9551,-0.9581,-0.9617,-0.9638,-0.9657,-0.969,-0.9713,-0.9729,-0.9752,-0.9789,-0.9812,-0.985,-0.9882,-0.9942,-0.9965,-1.0001,-1.0004,-1.0029,-1.001,-1.0005,-1.0005,-1.0004,-1.0007,-1.0033,-1.0034,-1.0034,-1.0035,0,-0.961,-0.9617,-0.9649,-0.9684,-0.9711,-0.9739,-0.9767,-0.9784,-0.9804,-0.983,-0.9869,-0.9893,-0.9941,-0.9979,-1.0016,-1.0035,-1.0039,-1.004,-1.0048,-1.0046,-1.0039,-1.0044,-0.9969,-1.0039,-1.0038,-1.0038,-1.0038,-1.0038,-0.965,-0.9676,-0.9705,-0.9741,-0.9763,-0.9789,-0.9816,-0.9834,-0.9867,-0.9906,-0.9913,-0.9954,-0.9984,-1.0035,-1.0055,-1.0087,-1.0082,-1.0094,-1.0097,-1.01,-1.0101,-1.0032,-1.0094,-1.0094,-1.0094,-1.0094,-1.0094,0,-0.971,-0.9728,-0.9761,-0.9799,-0.9827,-0.9826,-0.9856,-0.988,-0.9916,-0.9943,-0.9973,-1.0017,-1.0054,-1.0078,-1.0115,-1.0137,-1.0139,-1.0146,-1.0145,-1.015,-1.0104,-1.0094,-1.0143,-1.0143,-1.0143,-1.0143,-1.0143,-1.0143,-0.9744,-0.9788,-0.9798,-0.9853,-0.9872,-0.9912,-0.9929,-0.9953,-0.9975,-1.0024,-1.0053,-1.0069,-1.0095,-1.0134,-1.0167,-1.0174,-1.0188,-1.0195,-1.0201,-1.0158,-1.0153,-1.0148,-1.0139,-1.0197,-1.0197,-1.0245,-1.0245,-1.0245]}]]